Location: *
(58.4167°N, 22.5000°E)
Time: 05:41:42
(UTC+00:00)

Cosmos 1802 Rocket - Pass Details

Date: 22 September 2019
Orbit: 955 x 1011 km, 82.9° (Epoch: 20 October)

Event Time Altitude Azimuth Distance (km) Brightness Sun altitude
Rises 19:52:08 0° 346° (NNW) 3,701 8.0 -24.3°
Reaches altitude 10° 19:54:47 10° 353° (N) 2,758 7.1 -24.6°
Maximum altitude 20:00:51 46° 66° (ENE) 1,325 4.5 -25.1°
Enters shadow 20:01:46 43° 89° (E) 1,377 4.5 -25.2°
